FW1310 Weather Reports


time (UTC)temp
F
wind
direction
speed
knots
gust
knots
rain 1hr
in
rain 24hr
in
rain mn
in
humidity
%
barometer
mb
20260906060002 84 195 2.6 4.3 0.00 0.00 0.00 74 997.1
20260906055503 84 223 2.6 4.3 0.00 0.00 0.00 74 997.2
20260906055003 84 164 2.6 2.6 0.00 0.00 0.00 74 997.1
20260906054502 83 215 1.7 5.2 0.00 0.00 0.00 74 997.4
20260906054002 83 174 1.7 4.3 0.00 0.00 0.00 74 997.0
20260906053503 83 165 2.6 4.3 0.00 0.00 0.00 74 997.1
20260906053002 83 149 2.6 4.3 0.00 0.00 0.00 74 997.2
20260906052503 83 140 1.7 4.3 0.00 0.00 0.00 74 997.1
20260906052002 83 162 1.7 2.6 0.00 0.00 0.00 74 997.1
20260906051503 83 152 0.9 2.6 0.00 0.00 0.00 74 997.3
20260906051003 83 137 0.9 1.7 0.00 0.00 0.00 74 997.1
20260906050002 83 149 0.9 2.6 0.00 0.00 0.00 73 997.5
20260906045503 83 105 0.9 2.6 0.00 0.00 0.00 73 997.3
20260906045003 83 172 1.7 2.6 0.00 0.00 0.00 73 997.4
20260906044502 83 139 1.7 4.3 0.00 0.00 0.00 73 997.3
20260906044003 83 121 0.9 4.3 0.00 0.00 0.00 73 997.3
20260906043003 83 137 1.7 2.6 0.00 0.00 0.00 72 997.2
20260906042502 83 164 1.7 4.3 0.00 0.00 0.00 72 997.2
20260906042003 84 139 0.9 4.3 0.00 0.00 0.00 71 997.2
20260906041503 84 179 1.7 4.3 0.00 0.00 0.00 71 997.2
20260906041002 84 174 1.7 6.1 0.00 0.00 0.00 71 997.0
20260906040503 84 186 2.6 4.3 0.00 0.00 0.00 70 997.1
20260906040002 84 106 1.7 2.6 0.00 0.00 0.00 70 997.2
20260906035503 85 85 1.7 4.3 0.00 0.00 0.00 69 997.2
20260906035003 85 137 1.7 6.1 0.00 0.00 0.00 69 997.1
20260906034503 85 148 1.7 6.1 0.00 0.00 0.00 68 997.2
20260906034003 85 184 2.6 6.1 0.00 0.00 0.00 68 997.2
20260906033003 85 149 1.7 5.2 0.00 0.00 0.00 67 997.2
20260906032502 85 154 2.6 5.2 0.00 0.00 0.00 67 997.0
20260906032003 85 148 0.9 4.3 0.00 0.00 0.00 66 997.0
20260906031502 86 70 1.7 2.6 0.00 0.00 0.00 65 996.8
20260906031003 86 152 1.7 5.2 0.00 0.00 0.00 65 996.8
20260906030502 86 153 2.6 5.2 0.00 0.00 0.00 65 996.9
20260906030003 86 26 2.6 5.2 0.00 0.00 0.00 64 996.8
20260906025002 87 93 1.7 4.3 0.00 0.00 0.00 63 996.5
20260906024503 87 34 2.6 7.8 0.00 0.00 0.00 62 996.4
20260906024002 87 62 3.5 7.8 0.00 0.00 0.00 61 996.4
20260906023003 87 115 1.7 4.3 0.00 0.00 0.00 60 996.2
20260906022503 87 87 1.7 4.3 0.00 0.00 0.00 60 996.0
20260906022003 88 125 0.9 8.7 0.00 0.00 0.00 60 995.9
20260906021503 88 129 1.7 4.3 0.00 0.00 0.00 60 995.8
20260906021003 88 88 1.7 4.3 0.00 0.00 0.00 59 995.6
20260906020003 89 96 1.7 4.3 0.00 0.00 0.00 59 995.7
20260906015503 89 89 1.7 6.1 0.00 0.00 0.00 58 995.5
20260906015004 89 184 3.5 6.1 0.00 0.00 0.00 58 995.5
20260906014504 89 174 2.6 5.2 0.00 0.00 0.00 57 995.5
20260906014003 90 122 1.7 5.2 0.00 0.00 0.00 57 995.2
20260906013503 90 130 2.6 5.2 0.00 0.00 0.00 56 995.1
20260906013003 90 105 2.6 4.3 0.00 0.00 0.00 56 995.0
20260906012003 91 109 1.7 7.0 0.00 0.00 0.00 55 994.9
20260906011503 91 122 2.6 5.2 0.00 0.00 0.00 56 995.0
20260906011003 91 168 1.7 5.2 0.00 0.00 0.00 55 995.0
20260906010503 91 170 4.3 6.1 0.00 0.00 0.00 55 995.0
20260906010003 91 107 2.6 5.2 0.00 0.00 0.00 54 995.0
20260906005003 92 117 1.7 4.3 0.00 0.00 0.00 54 994.9
20260906004502 92 67 2.6 6.1 0.00 0.00 0.00 53 995.0
20260906004003 92 67 2.6 6.1 0.00 0.00 0.00 53 995.2
20260906003503 93 184 2.6 5.2 0.00 0.00 0.00 52 994.9
20260906003003 93 152 1.7 7.8 0.00 0.00 0.00 51 994.9
20260906002002 95 174 1.7 5.2 0.00 0.00 0.00 46 994.9
20260906001503 95 130 1.7 1.7 0.00 0.00 0.00 44 995.1
20260906001003 95 156 0.9 2.6 0.00 0.00 0.00 44 994.7
20260905235503 96 126 1.7 4.3 0.00 0.00 0.00 45 994.7
20260905235003 96 109 0.9 1.7 0.00 0.00 0.00 44 994.7
20260905234503 96 114 0.9 4.3 0.00 0.00 0.00 43 994.6
20260905234003 97 116 0.9 4.3 0.00 0.00 0.00 43 994.6
20260905233503 97 128 1.7 5.2 0.00 0.00 0.00 43 994.5
20260905233003 97 130 2.6 5.2 0.00 0.00 0.00 43 994.5
20260905232503 97 162 1.7 2.6 0.00 0.00 0.00 42 994.6
20260905232003 97 187 2.6 4.3 0.00 0.00 0.00 42 994.7
20260905231502 97 199 2.6 6.1 0.00 0.00 0.00 41 994.8
20260905231003 97 180 4.3 6.1 0.00 0.00 0.00 41 994.9
20260905230502 98 173 0.9 2.6 0.00 0.00 0.00 40 994.6
20260905225503 98 71 0.9 4.3 0.00 0.00 0.00 40 994.8
20260905224503 98 115 0.9 2.6 0.00 0.00 0.00 39 994.7
20260905223503 99 142 1.7 4.3 0.00 0.00 0.00 39 994.7
20260905223003 99 99 1.7 5.2 0.00 0.00 0.00 40 994.5
20260905222502 100 193 1.7 2.6 0.00 0.00 0.00 39 994.7
20260905222003 99 124 1.7 2.6 0.00 0.00 0.00 39 994.9
20260905221504 98 201 0.9 2.6 0.00 0.00 0.00 40 994.9
20260905221002 98 196 1.7 4.3 0.00 0.00 0.00 39 994.8
20260905220503 98 75 2.6 2.6 0.00 0.00 0.00 39 994.7
20260905215502 98 207 4.3 5.2 0.00 0.00 0.00 38 994.8
20260905214503 98 83 0.9 2.6 0.00 0.00 0.00 39 994.9
20260905214003 98 130 1.7 6.1 0.00 0.00 0.00 41 995.0
20260905213502 98 182 1.7 4.3 0.00 0.00 0.00 41 995.1
20260905213003 97 165 0.9 2.6 0.00 0.00 0.00 40 994.9
20260905212503 97 82 0.9 2.6 0.00 0.00 0.00 42 995.2
20260905212002 96 98 0.9 1.7 0.00 0.00 0.00 43 995.1
20260905211003 95 127 1.7 5.2 0.00 0.00 0.00 44 995.4
20260905210503 95 140 2.6 6.1 0.00 0.00 0.00 44 995.3
20260905210003 96 198 2.6 6.1 0.00 0.00 0.00 43 995.3
20260905205502 96 177 2.6 7.0 0.00 0.00 0.00 43 995.5
20260905205003 98 161 2.6 4.3 0.00 0.00 0.00 42 995.6
20260905204503 98 131 0.0 5.2 0.00 0.00 0.00 41 995.6
20260905204003 99 76 2.6 5.2 0.00 0.00 0.00 41 995.7
20260905203003 98 137 0.9 2.6 0.00 0.00 0.00 42 995.7
20260905202503 99 128 0.9 1.7 0.00 0.00 0.00 41 995.8
20260905202003 98 115 0.9 4.3 0.00 0.00 0.00 41 995.9
20260905201503 100 167 1.7 2.6 0.00 0.00 0.00 41 996.0
20260905200503 98 167 1.7 5.2 0.00 0.00 0.00 43 996.0
20260905200002 98 157 1.7 5.2 0.00 0.00 0.00 43 996.3
20260905195003 97 134 1.7 2.6 0.00 0.00 0.00 44 996.6
20260905194503 97 62 1.7 2.6 0.00 0.00 0.00 45 996.4
20260905194003 96 140 1.7 5.2 0.00 0.00 0.00 45 996.6
20260905193503 98 190 4.3 5.2 0.00 0.00 0.00 43 996.6
20260905193003 97 170 2.6 5.2 0.00 0.00 0.00 43 996.7
20260905192002 97 116 1.7 1.7 0.00 0.00 0.00 44 996.9
20260905191503 95 71 0.9 1.7 0.00 0.00 0.00 47 997.0
20260905191003 94 85 1.7 4.3 0.00 0.00 0.00 49 997.1
20260905190002 95 156 1.7 4.3 0.00 0.00 0.00 47 997.3
20260905185503 96 201 1.7 2.6 0.00 0.00 0.00 44 997.3
20260905185003 94 118 1.7 7.0 0.00 0.00 0.00 46 997.4
20260905184503 94 192 2.6 6.1 0.00 0.00 0.00 49 997.5
20260905183503 95 290 5.2 6.1 0.00 0.00 0.00 48 997.6
20260905183003 96 243 1.7 7.0 0.00 0.00 0.00 48 997.7
20260905182503 95 184 0.9 5.2 0.00 0.00 0.00 46 997.9
20260905182003 95 176 2.6 7.0 0.00 0.00 0.00 47 997.9
20260905181503 95 185 5.2 7.0 0.00 0.00 0.00 48 997.9
20260905181003 95 180 2.6 5.2 0.00 0.00 0.00 47 998.1
20260905180503 95 130 1.7 7.0 0.00 0.00 0.00 47 998.2
20260905180003 94 165 2.6 7.0 0.00 0.00 0.00 48 998.4
20260905175503 92 108 0.0 4.3 0.00 0.00 0.00 51 998.6
20260905175002 94 254 1.7 5.2 0.00 0.00 0.00 48 998.6
20260905174503 94 209 3.5 7.0 0.00 0.00 0.00 50 998.5
20260905173503 94 162 0.9 1.7 0.00 0.00 0.00 52 998.8
20260905173003 95 156 1.7 4.3 0.00 0.00 0.00 50 998.8
20260905172003 94 177 4.3 7.0 0.00 0.00 0.00 49 998.7
20260905171504 93 201 5.2 7.0 0.00 0.00 0.00 47 998.8
20260905171002 93 114 0.9 1.7 0.00 0.00 0.00 51 998.7
20260905170503 93 156 2.6 5.2 0.00 0.00 0.00 56 998.8
20260905164503 90 139 1.7 5.2 0.00 0.00 0.00 61 999.1
20260905164003 90 215 2.6 4.3 0.00 0.00 0.00 61 999.1
20260905163502 90 176 2.6 4.3 0.00 0.00 0.00 59 999.0
20260905163003 90 309 2.6 7.0 0.00 0.00 0.00 59 999.2
20260905162503 89 182 2.6 6.1 0.00 0.00 0.00 61 999.1
20260905162003 90 175 4.3 6.1 0.00 0.00 0.00 62 998.9
20260905161503 90 272 1.7 2.6 0.00 0.00 0.00 60 999.0
20260905161003 89 198 3.5 7.8 0.00 0.00 0.00 59 999.1
20260905160503 89 253 2.6 7.8 0.00 0.00 0.00 61 999.1
20260905160003 90 153 2.6 7.0 0.00 0.00 0.00 61 998.9
20260905155502 89 181 1.7 5.2 0.00 0.00 0.00 63 998.8
20260905155003 88 273 2.6 5.2 0.00 0.00 0.00 66 998.8
20260905154502 88 172 3.5 7.0 0.00 0.00 0.00 65 998.9
20260905154002 88 238 2.6 7.0 0.00 0.00 0.00 66 998.8
20260905153503 88 173 4.3 7.0 0.00 0.00 0.00 67 999.0
20260905153003 88 150 2.6 5.2 0.00 0.00 0.00 67 999.0
20260905152503 87 114 0.9 4.3 0.00 0.00 0.00 70 999.0
20260905152003 87 100 0.9 5.2 0.00 0.00 0.00 71 998.8
20260905151503 86 256 4.3 5.2 0.00 0.00 0.00 72 998.9
20260905151002 86 241 2.6 5.2 0.00 0.00 0.00 72 998.9
20260905150503 85 220 2.6 5.2 0.00 0.00 0.00 74 999.0
20260905150003 85 253 1.7 6.1 0.00 0.00 0.00 74 999.1
20260905145502 85 132 0.9 4.3 0.00 0.00 0.00 76 998.9
20260905145003 85 274 1.7 5.2 0.00 0.00 0.00 76 999.0
20260905144503 85 165 2.6 6.1 0.00 0.00 0.00 77 999.0
20260905144003 84 256 3.5 6.1 0.00 0.00 0.00 79 999.0
20260905143503 83 228 1.7 4.3 0.00 0.00 0.00 81 998.8
20260905143003 83 254 2.6 4.3 0.00 0.00 0.00 82 998.9
20260905142003 82 98 0.9 2.6 0.00 0.00 0.00 85 998.9
20260905141003 81 165 2.6 4.3 0.00 0.00 0.00 87 998.9
20260905140503 81 166 2.6 5.2 0.00 0.00 0.00 88 998.8
20260905140002 81 203 2.6 4.3 0.00 0.00 0.00 89 998.8
20260905134503 80 139 2.6 5.2 0.00 0.00 0.00 92 998.6
20260905134003 79 177 1.7 2.6 0.00 0.00 0.00 93 998.6
20260905133502 78 150 0.9 2.6 0.00 0.00 0.00 95 998.6
20260905133003 79 213 0.9 1.7 0.00 0.00 0.00 95 998.5
20260905132003 78 169 0.9 1.7 0.00 0.00 0.00 96 998.4
20260905131503 78 188 0.9 1.7 0.00 0.00 0.00 97 998.4
20260905130003 76 164 0.9 1.7 0.00 0.00 0.00 97 998.2
20260905125504 76 159 0.9 0.9 0.00 0.01 0.00 97 998.1
20260905125003 76 147 0.9 1.7 0.00 0.01 0.00 97 998.1
20260905124503 76 155 0.9 1.7 0.00 0.01 0.00 97 998.2
20260905124003 76 156 1.7 1.7 0.00 0.01 0.00 97 997.9
20260905123003 75 154 0.9 1.7 0.00 0.01 0.00 97 997.9
20260905122503 75 160 0.9 1.7 0.00 0.01 0.00 97 998.0
20260905121503 75 154 1.7 1.7 0.00 0.01 0.00 97 997.8
20260905121003 76 149 0.9 0.9 0.00 0.01 0.00 97 997.7
20260905120503 76 149 0.9 1.7 0.00 0.01 0.00 97 997.5
20260905120003 76 149 0.9 0.9 0.00 0.01 0.00 97 997.6
20260905115503 76 143 0.9 0.9 0.00 0.01 0.00 97 997.6
20260905115003 76 152 0.9 1.7 0.00 0.01 0.00 97 997.5
20260905114503 76 156 0.9 1.7 0.00 0.01 0.00 97 997.6
20260905114003 76 140 0.0 0.9 0.00 0.01 0.00 96 997.5
20260905113504 76 146 0.9 1.7 0.00 0.01 0.00 96 997.4
20260905113004 76 160 0.9 1.7 0.00 0.01 0.00 96 997.5
20260905112503 76 155 1.7 1.7 0.00 0.01 0.00 96 997.5
20260905112003 76 161 0.9 1.7 0.00 0.01 0.00 96 997.4
20260905111503 76 165 0.9 1.7 0.00 0.01 0.00 96 997.3
20260905111003 76 158 0.9 0.9 0.00 0.01 0.00 96 997.2
20260905110503 76 139 0.0 0.9 0.00 0.01 0.00 96 997.2
20260905105503 76 135 0.0 0.9 0.00 0.01 0.00 95 997.1
20260905105003 76 134 0.0 0.9 0.00 0.01 0.00 95 997.3
20260905104003 76 145 0.9 0.9 0.00 0.01 0.00 95 997.1
20260905103003 76 151 0.9 0.9 0.00 0.01 0.00 95 997.2
20260905102503 76 146 0.0 0.9 0.00 0.01 0.00 95 997.3
20260905102003 77 146 0.0 0.9 0.00 0.01 0.00 94 997.3
20260905101503 76 146 0.0 0.9 0.00 0.01 0.00 94 997.2
20260905101003 77 142 0.9 1.7 0.00 0.01 0.00 94 997.4
20260905100502 77 144 0.0 0.9 0.00 0.01 0.00 94 997.4
20260905100003 77 149 0.9 0.9 0.00 0.01 0.00 94 997.3
20260905095503 77 146 0.0 1.7 0.00 0.01 0.00 94 997.3
20260905095003 77 157 0.9 1.7 0.00 0.01 0.00 94 997.3
20260905094503 77 145 0.9 1.7 0.00 0.01 0.00 93 997.3
20260905093503 77 160 0.9 1.7 0.00 0.01 0.00 93 997.2
20260905093004 77 158 0.9 1.7 0.00 0.01 0.00 93 997.3
20260905092003 78 171 0.9 1.7 0.00 0.01 0.00 92 997.1
20260905091504 78 175 0.9 2.6 0.00 0.01 0.00 92 997.2
20260905091003 78 203 0.9 2.6 0.00 0.01 0.00 92 997.2
20260905090003 78 148 0.9 6.1 0.00 0.01 0.00 91 997.2
20260905085503 78 157 0.9 2.6 0.00 0.01 0.00 91 997.3
20260905085003 78 213 1.7 2.6 0.00 0.01 0.00 91 997.1
20260905084503 78 158 0.9 2.6 0.00 0.01 0.00 91 997.1
20260905084003 78 169 1.7 5.2 0.00 0.01 0.00 91 997.5
20260905083502 78 170 2.6 5.2 0.00 0.01 0.00 90 997.3
20260905083003 78 175 1.7 2.6 0.00 0.01 0.00 90 997.4
20260905082003 78 197 1.7 5.2 0.00 0.01 0.00 90 997.3
20260905080503 79 163 3.5 6.1 0.00 0.01 0.00 90 997.3
20260905080003 79 174 2.6 6.1 0.00 0.01 0.00 89 997.4
20260905075503 79 214 2.6 5.2 0.00 0.01 0.00 89 997.4
20260905075003 79 173 3.5 5.2 0.00 0.01 0.00 89 997.5
20260905074503 79 240 2.6 4.3 0.00 0.01 0.00 89 997.7
20260905074003 79 174 1.7 6.1 0.00 0.01 0.00 88 997.4
20260905073503 79 199 2.6 6.1 0.00 0.01 0.00 88 997.7
20260905073003 79 239 2.6 5.2 0.00 0.01 0.00 88 997.5
20260905072503 79 170 2.6 5.2 0.00 0.01 0.00 87 997.8
20260905072003 79 133 1.7 2.6 0.00 0.01 0.00 87 997.6
20260905071504 80 161 2.6 5.2 0.00 0.01 0.00 87 997.4
20260905071003 80 195 2.6 2.6 0.00 0.01 0.00 86 997.8
20260905070503 80 206 4.3 7.8 0.00 0.01 0.00 86 997.6
20260905065502 80 183 2.6 4.3 0.00 0.01 0.00 85 997.8
20260905065003 80 190 2.6 4.3 0.00 0.01 0.00 85 997.8
20260905064503 80 177 3.5 6.1 0.00 0.01 0.00 84 997.9
20260905064003 80 169 4.3 6.1 0.00 0.01 0.00 84 997.9
20260905063503 80 181 4.3 6.1 0.00 0.01 0.00 83 997.8
20260905063003 80 177 2.6 6.1 0.00 0.01 0.00 83 997.7
20260905062503 80 193 3.5 5.2 0.00 0.01 0.00 83 997.8
20260905062003 80 148 2.6 7.0 0.00 0.01 0.00 82 998.0
20260905061503 80 214 6.1 7.0 0.00 0.01 0.00 82 997.7
20260905061003 80 178 2.6 5.2 0.00 0.01 0.00 81 997.9